Weather History for Creston, IA

Change the Weather History Date:

Sunday, November 3, 2013

  Actual Average Record
Temperature  
Mean Temperature 46 °F -  
Max Temperature 55 °F 51 °F 75 °F (2008)
Min Temperature 37 °F 33 °F 5 °F (1991)
Degree Days  
Heating Degree Days 19    
Moisture  
Dew Point 34 °F    
Average Humidity 64    
Maximum Humidity 81    
Minimum Humidity 41    
Precipitation  
Precipitation 0.00 in - - ()
Sea Level Pressure  
Sea Level Pressure 30.01 in    
Wind  
Wind Speed 14 mph (SSE)    
Max Wind Speed 29 mph    
Max Gust Speed 37 mph    
Visibility 10 miles    
Events      
Averages and records for this station are not official NWS values.
T = Trace of Precipitation, MM = Missing Value Source: NWS Daily Summary

Daily Weather History Graph

Daily Weather History Graph

Search for Another Location

Airport:

Trip Planner

Search our weather history database for the weather conditions in past years. The results will help you decide how hot, cold, wet, or windy it might be!

Date:

Astronomy

Nov. 03, 2013 Rise Set
Actual Time 6:50 AM CST 5:10 PM CST
Civil Twilight 6:22 AM CST 5:39 PM CST
Nautical Twilight 5:49 AM CST 6:11 PM CST
Astronomical Twilight 5:17 AM CST 6:43 PM CST
Moon 6:55 AM CST (11/3) 5:25 PM CST (11/3)
Length of Visible Light 11h 16m
Length of Day
10h 19m
New Moon, 0% of the Moon is Illuminated
Nov 3
New Moon
Nov 9
First Quarter
Nov 17
Full
Nov 25
Last Quarter
Dec 2
New

Hourly Weather History & Observations

Time (CST) Temp. Windchill Dew Point Humidity Pressure Visibility Wind Dir Wind Speed Gust Speed Precip Events Conditions
12:15 AM 37.4 °F 30.8 °F 32.0 °F 81% 30.13 in 10.0 mi South 9.2 mph - N/A   Clear
12:35 AM 37.4 °F 32.1 °F 32.0 °F 81% 30.13 in 10.0 mi South 6.9 mph - N/A   Clear
12:55 AM 37.4 °F 31.4 °F 32.0 °F 81% 30.13 in 10.0 mi South 8.1 mph - N/A   Clear
1:15 AM 37.4 °F 31.4 °F 32.0 °F 81% 30.14 in 10.0 mi South 8.1 mph - N/A   Clear
1:35 AM 37.4 °F 30.8 °F 32.0 °F 81% 30.13 in 10.0 mi South 9.2 mph - N/A   Clear
1:55 AM 37.4 °F 32.1 °F 32.0 °F 81% 30.13 in 10.0 mi South 6.9 mph - N/A   Clear
1:15 AM 37.4 °F 31.4 °F 32.0 °F 81% 30.13 in 10.0 mi SSE 8.1 mph - N/A   Clear
1:35 AM 37.4 °F 30.8 °F 32.0 °F 81% 30.13 in 10.0 mi South 9.2 mph - N/A   Clear
1:55 AM 37.4 °F 31.4 °F 32.0 °F 81% 30.13 in 10.0 mi South 8.1 mph - N/A   Clear
2:15 AM 39.2 °F 33.6 °F 32.0 °F 75% 30.13 in 10.0 mi SSE 8.1 mph - N/A   Clear
2:35 AM 37.4 °F 30.8 °F 32.0 °F 81% 30.13 in 10.0 mi South 9.2 mph - N/A   Clear
2:55 AM 37.4 °F 30.8 °F 32.0 °F 81% 30.12 in 10.0 mi South 9.2 mph - N/A   Clear
3:15 AM 37.4 °F 30.8 °F 32.0 °F 81% 30.12 in 10.0 mi South 9.2 mph - N/A   Clear
3:35 AM 37.4 °F 31.4 °F 32.0 °F 81% 30.11 in 10.0 mi SSE 8.1 mph - N/A   Clear
3:55 AM 37.4 °F 31.4 °F 32.0 °F 81% 30.11 in 10.0 mi South 8.1 mph - N/A   Clear
4:15 AM 37.4 °F 30.8 °F 32.0 °F 81% 30.12 in 10.0 mi South 9.2 mph - N/A   Clear
4:35 AM 37.4 °F 30.8 °F 32.0 °F 81% 30.11 in 10.0 mi SSE 9.2 mph - N/A   Clear
4:55 AM 37.4 °F 29.8 °F 32.0 °F 81% 30.11 in 10.0 mi SSE 11.5 mph - N/A   Clear
5:15 AM 37.4 °F 31.4 °F 32.0 °F 81% 30.11 in 10.0 mi SSE 8.1 mph - N/A   Clear
5:35 AM 37.4 °F 30.3 °F 32.0 °F 81% 30.11 in 10.0 mi SSE 10.4 mph - N/A   Clear
5:55 AM 37.4 °F 30.3 °F 32.0 °F 81% 30.11 in 10.0 mi South 10.4 mph - N/A   Clear
6:15 AM 37.4 °F 30.8 °F 32.0 °F 81% 30.10 in 10.0 mi SSE 9.2 mph - N/A   Clear
6:35 AM 37.4 °F 30.8 °F 32.0 °F 81% 30.10 in 10.0 mi SSE 9.2 mph - N/A   Clear
6:55 AM 37.4 °F 30.8 °F 32.0 °F 81% 30.10 in 10.0 mi SSE 9.2 mph - N/A   Clear
7:15 AM 37.4 °F 30.3 °F 32.0 °F 81% 30.09 in 10.0 mi SSE 10.4 mph - N/A   Clear
7:35 AM 37.4 °F 29.8 °F 32.0 °F 81% 30.09 in 10.0 mi SSE 11.5 mph - N/A   Clear
7:55 AM 39.2 °F 32.5 °F 32.0 °F 75% 30.10 in 10.0 mi SSE 10.4 mph 16.1 mph N/A   Clear
8:15 AM 42.8 °F 36.6 °F 33.8 °F 70% 30.09 in 10.0 mi SSE 11.5 mph 20.7 mph N/A   Clear
8:35 AM 44.6 °F 37.2 °F 33.8 °F 66% 30.09 in 10.0 mi South 17.3 mph - N/A   Clear
8:55 AM 46.4 °F 40.4 °F 33.8 °F 62% 30.09 in 10.0 mi South 13.8 mph 24.2 mph N/A   Clear
9:15 AM 48.2 °F - 33.8 °F 58% 30.08 in 10.0 mi South 18.4 mph 26.5 mph N/A   Clear
9:35 AM 50.0 °F - 33.8 °F 54% 30.06 in 10.0 mi South 23.0 mph - N/A   Clear
9:55 AM 50.0 °F - 33.8 °F 54% 30.05 in 10.0 mi SSE 23.0 mph 33.4 mph N/A   Clear
10:15 AM 51.8 °F - 33.8 °F 50% 30.05 in 10.0 mi SSE 23.0 mph 36.8 mph N/A   Clear
10:35 AM 51.8 °F - 32.0 °F 47% 30.04 in 10.0 mi SSE 23.0 mph 36.8 mph N/A   Clear
10:55 AM 53.6 °F - 32.0 °F 44% 30.03 in 10.0 mi South 24.2 mph 34.5 mph N/A   Clear
11:15 AM 51.8 °F - 30.2 °F 44% 30.02 in 10.0 mi South 23.0 mph 34.5 mph N/A   Clear
11:35 AM 53.6 °F - 32.0 °F 44% 30.01 in 10.0 mi SSE 26.5 mph 36.8 mph N/A   Clear
11:55 AM 55.4 °F - 32.0 °F 41% 30.00 in 10.0 mi SSE 21.9 mph 35.7 mph N/A   Clear
12:15 PM 53.6 °F - 32.0 °F 44% 29.99 in 10.0 mi SSE 20.7 mph 34.5 mph N/A   Clear
12:35 PM 55.4 °F - 32.0 °F 41% 29.98 in 10.0 mi SSE 24.2 mph 32.2 mph N/A   Clear
12:55 PM 55.4 °F - 33.8 °F 44% 29.96 in 10.0 mi SSE 25.3 mph - N/A   Clear
1:15 PM 53.6 °F - 33.8 °F 47% 29.95 in 10.0 mi SSE 21.9 mph 34.5 mph N/A   Clear
1:35 PM 53.6 °F - 33.8 °F 47% 29.94 in 10.0 mi SSE 24.2 mph 36.8 mph N/A   Clear
1:55 PM 55.4 °F - 33.8 °F 44% 29.92 in 10.0 mi SSE 20.7 mph 32.2 mph N/A   Clear
2:15 PM 55.4 °F - 33.8 °F 44% 29.92 in 10.0 mi SSE 28.8 mph 35.7 mph N/A   Clear
2:35 PM 53.6 °F - 33.8 °F 47% 29.92 in 10.0 mi SSE 21.9 mph 31.1 mph N/A   Clear
2:55 PM 53.6 °F - 33.8 °F 47% 29.92 in 10.0 mi SSE 19.6 mph 34.5 mph N/A   Clear
3:15 PM 55.4 °F - 33.8 °F 44% 29.91 in 10.0 mi SSE 24.2 mph 34.5 mph N/A   Clear
3:35 PM 53.6 °F - 33.8 °F 47% 29.90 in 10.0 mi SSE 25.3 mph 32.2 mph N/A   Clear
3:55 PM 53.6 °F - 33.8 °F 47% 29.90 in 10.0 mi SSE 24.2 mph 34.5 mph N/A   Clear
4:15 PM 53.6 °F - 33.8 °F 47% 29.90 in 10.0 mi SSE 17.3 mph 34.5 mph N/A   Clear
4:35 PM 51.8 °F - 35.6 °F 54% 29.90 in 10.0 mi SE 19.6 mph 29.9 mph N/A   Clear
4:55 PM 51.8 °F - 35.6 °F 54% 29.89 in 10.0 mi SSE 16.1 mph 28.8 mph N/A   Clear
5:15 PM 51.8 °F - 35.6 °F 54% 29.89 in 10.0 mi SSE 19.6 mph 25.3 mph N/A   Clear
5:35 PM 50.0 °F - 35.6 °F 58% 29.88 in 10.0 mi SE 19.6 mph 26.5 mph N/A   Clear
5:55 PM 51.8 °F - 35.6 °F 54% 29.88 in 10.0 mi SSE 23.0 mph 29.9 mph N/A   Clear
6:15 PM 50.0 °F - 35.6 °F 58% 29.88 in 10.0 mi SSE 21.9 mph 35.7 mph N/A   Clear
6:35 PM 50.0 °F - 35.6 °F 58% 29.88 in 10.0 mi SSE 23.0 mph 33.4 mph N/A   Clear
6:55 PM 50.0 °F - 35.6 °F 58% 29.88 in 10.0 mi SSE 27.6 mph 35.7 mph N/A   Clear
7:15 PM 50.0 °F - 37.4 °F 62% 29.86 in 10.0 mi SSE 25.3 mph 35.7 mph N/A   Clear
7:35 PM 50.0 °F - 37.4 °F 62% 29.86 in 10.0 mi SSE 26.5 mph 33.4 mph N/A   Clear
7:55 PM 50.0 °F - 37.4 °F 62% 29.86 in 10.0 mi SSE 20.7 mph 29.9 mph N/A   Clear
8:15 PM 50.0 °F - 37.4 °F 62% 29.87 in 10.0 mi SSE 24.2 mph 35.7 mph N/A   Clear
8:35 PM 50.0 °F - 37.4 °F 62% 29.88 in 10.0 mi SSE 20.7 mph 32.2 mph N/A   Clear
8:55 PM 50.0 °F - 35.6 °F 58% 29.89 in 10.0 mi SSE 20.7 mph 27.6 mph N/A   Clear
9:15 PM 50.0 °F - 35.6 °F 58% 29.88 in 10.0 mi SSE 21.9 mph 33.4 mph N/A   Clear
9:35 PM 50.0 °F - 37.4 °F 62% 29.89 in 10.0 mi SSE 17.3 mph 28.8 mph N/A   Clear
9:55 PM 50.0 °F - 37.4 °F 62% 29.89 in 10.0 mi SSE 17.3 mph 27.6 mph N/A   Clear
10:15 PM 50.0 °F - 37.4 °F 62% 29.89 in 10.0 mi SSE 16.1 mph 28.8 mph N/A   Clear
10:35 PM 50.0 °F - 37.4 °F 62% 29.90 in 10.0 mi SSE 17.3 mph 25.3 mph N/A   Clear
10:55 PM 51.8 °F - 37.4 °F 58% 29.90 in 10.0 mi South 16.1 mph 24.2 mph N/A   Clear